This is the latest recevied weather packets stored in our database for station/object WA5KWK. If no packets are shown the sender has not sent any weather packets the latest 10 day(s).
| Time | Temp. | Humidity | Pressure | Rain* | Wind** | Luminosity | Snow |
|---|---|---|---|---|---|---|---|
| 1777685404 | 21.67° C | 62% | 1013.1 hPa | 0 mm | - | 123 W/m² | - |
| 1777685104 | 21.67° C | 63% | 1013 hPa | 0 mm | - | 135 W/m² | - |
| 1777684505 | 22.22° C | 59% | 1013.2 hPa | 0 mm | - | 144 W/m² | - |
| 1777683005 | 22.78° C | 58% | 1013.3 hPa | 0 mm | - | 269 W/m² | - |
| 1777682405 | 22.78° C | 55% | 1013.1 hPa | 0 mm | - | 278 W/m² | - |
| 1777681505 | 23.33° C | 55% | 1013.1 hPa | 0 mm | - | 341 W/m² | - |
| 1777679405 | 22.78° C | 56% | 1013.3 hPa | 0 mm | - | 527 W/m² | - |
| 1777678505 | 22.78° C | 60% | 1013.5 hPa | 0 mm | - | 592 W/m² | - |
| 1777677905 | 22.78° C | 61% | 1013.5 hPa | 0 mm | - | 640 W/m² | - |
| 1777675505 | 22.22° C | 64% | 1013.8 hPa | 0 mm | - | 661 W/m² | - |
| 1777672804 | 22.78° C | 61% | 1014.2 hPa | 0 mm | - | 745 W/m² | - |
| 1777671005 | 22.78° C | 60% | 1014.2 hPa | 0 mm | - | 773 W/m² | - |
| 1777670104 | 23.33° C | 59% | 1014.4 hPa | 0 mm | - | 874 W/m² | - |
| 1777668905 | 22.78° C | 58% | 1014.7 hPa | 0 mm | - | 904 W/m² | - |
| 1777666505 | 22.78° C | 48% | 1014.8 hPa | 0 mm | - | 1002 W/m² | - |
| 1777663505 | 22.78° C | 46% | 1015 hPa | 0 mm | - | 970 W/m² | - |
| 1777661105 | 22.78° C | 45% | 1015 hPa | 0 mm | - | 921 W/m² | - |
| 1777655705 | 21.11° C | 47% | 1015.4 hPa | 0 mm | - | 656 W/m² | - |
| 1777654505 | 21.11° C | 45% | 1015.3 hPa | 0 mm | - | 686 W/m² | - |
| 1777654204 | 21.11° C | 45% | 1015.3 hPa | 0 mm | - | 671 W/m² | - |
| 1777653605 | 20.56° C | 44% | 1015.2 hPa | 0 mm | - | 638 W/m² | - |
| 1777653304 | 20° C | 43% | 1015.2 hPa | 0 mm | - | 622 W/m² | - |
| 1777652104 | 19.44° C | 47% | 1015.2 hPa | 0 mm | - | 81 W/m² | - |
| 1777651805 | 18.89° C | 52% | 1015.1 hPa | 0 mm | - | 265 W/m² | - |
| 1777649704 | 18.89° C | 49% | 1014.9 hPa | 0 mm | - | 144 W/m² | - |
* Rain latest hour (hover to see other rain measurements)
** Current wind speed in m/s (hover to see current wind gust speed)